Mineola, TX

10:00 PM CDT on May 28, 2017 (GMT -0500)
Mineola

Weather History for KJDD - January, 2013

Change the Weather History Date:

Thursday, January 24, 2013

  Actual Average (KTYR) Record (KTYR)
Temperature  
Mean Temperature 60 °F -  
Max Temperature 73 °F 56 °F 82 °F (1943)
Min Temperature 48 °F 37 °F 5 °F (1963)
Degree Days  
Heating Degree Days 4    
Growing Degree Days 10 (Base 50)    
Moisture  
Dew Point 58 °F    
Average Humidity 88    
Maximum Humidity 100    
Minimum Humidity 65    
Precipitation  
Precipitation 0.00 in - - ()
Sea Level Pressure  
Sea Level Pressure 30.16 in    
Wind  
Wind Speed 5 mph (South)    
Max Wind Speed 10 mph    
Max Gust Speed 16 mph    
Visibility 7 miles    
Events      
Averages and records for this station are not official NWS values.
T = Trace of Precipitation, MM = Missing Value Source: NWS Daily Summary

Daily Weather History Graph

Daily Weather History Graph

Search for Another Location

Airport or City:

Trip Planner

Search our weather history database for the weather conditions in past years. The results will help you decide how hot, cold, wet, or windy it might be!

Date:

Astronomy

Jan. 24, 2013 Rise Set
Actual Time 7:21 AM CST 5:47 PM CST
Civil Twilight 6:55 AM CST 6:13 PM CST
Nautical Twilight 6:25 AM CST 6:43 PM CST
Astronomical Twilight 5:55 AM CST 7:12 PM CST
Moon 3:52 PM CST (1/24) 5:17 AM CST (1/24)
Length of Visible Light 11h 18m
Length of Day
10h 26m
Waxing Gibbous, 94% of the Moon is Illuminated
Jan 24
Waxing Gibbous
Jan 26
Full
Feb 3
Last Quarter
Feb 10
New
Feb 17
First Quarter

Hourly Weather History & Observations

Time (CST) Temp. Dew Point Humidity Pressure Visibility Wind Dir Wind Speed Gust Speed Precip Events Conditions
12:15 AM 60.8 °F 55.4 °F 82% 30.19 in 10.0 mi South 3.5 mph - N/A   Unknown
12:35 AM 60.8 °F 55.4 °F 82% 30.19 in 10.0 mi South 4.6 mph - N/A   Unknown
12:55 AM 60.8 °F 55.4 °F 82% 30.19 in 10.0 mi South 3.5 mph - N/A   Unknown
1:15 AM 57.2 °F 53.6 °F 88% 30.20 in 10.0 mi Calm Calm - N/A   Unknown
1:55 AM 51.8 °F 50.0 °F 94% 30.20 in 10.0 mi Calm Calm - N/A   Unknown
2:15 AM 51.8 °F 48.2 °F 88% 30.20 in 8.0 mi Calm Calm - N/A   Unknown
2:35 AM 50.0 °F 48.2 °F 94% 30.20 in 8.0 mi SE 3.5 mph - N/A   Unknown
2:55 AM 51.8 °F 50.0 °F 94% 30.20 in 7.0 mi SE 3.5 mph - N/A   Unknown
3:15 AM 50.0 °F 50.0 °F 100% 30.20 in 6.0 mi Calm Calm - N/A   Mist
3:35 AM 48.2 °F 48.2 °F 100% 30.19 in 6.0 mi Calm Calm - N/A   Mist
3:55 AM 51.8 °F 51.8 °F 100% 30.19 in 5.0 mi South 3.5 mph - N/A   Mist
4:15 AM 53.6 °F 53.6 °F 100% 30.19 in 8.0 mi Calm Calm - N/A   Unknown
4:35 AM 48.2 °F 48.2 °F 100% 30.19 in 5.0 mi Calm Calm - N/A   Mist
4:55 AM 53.6 °F 53.6 °F 100% 30.20 in 5.0 mi Calm Calm - N/A   Mist
5:15 AM 57.2 °F 57.2 °F 100% 30.19 in 7.0 mi South 6.9 mph - N/A   Unknown
5:35 AM 57.2 °F 57.2 °F 100% 30.19 in 7.0 mi South 8.1 mph - N/A   Unknown
5:55 AM 57.2 °F 57.2 °F 100% 30.18 in 7.0 mi South 6.9 mph - N/A   Unknown
6:15 AM 57.2 °F 57.2 °F 100% 30.19 in 7.0 mi SSW 6.9 mph - N/A   Unknown
6:35 AM 59.0 °F 57.2 °F 94% 30.19 in 8.0 mi SSW 8.1 mph - N/A   Unknown
6:55 AM 59.0 °F 57.2 °F 94% 30.20 in 8.0 mi SSW 6.9 mph - N/A   Unknown
7:15 AM 59.0 °F 57.2 °F 94% 30.20 in 5.0 mi SSW 8.1 mph - N/A   Mist
7:35 AM 57.2 °F 57.2 °F 100% 30.20 in 5.0 mi SSW 6.9 mph - N/A   Mist
7:55 AM 59.0 °F 59.0 °F 100% 30.20 in 5.0 mi SSW 9.2 mph - N/A   Mist
8:15 AM 59.0 °F 59.0 °F 100% 30.21 in 3.0 mi SSW 8.1 mph - N/A   Mist
8:35 AM 60.8 °F 59.0 °F 94% 30.21 in 4.0 mi SSW 10.4 mph - N/A   Mist
9:15 AM 60.8 °F 60.8 °F 100% 30.22 in 4.0 mi SSW 8.1 mph - N/A   Mist
9:35 AM 60.8 °F 60.8 °F 100% 30.23 in 5.0 mi SSW 9.2 mph - N/A   Mist
9:55 AM 62.6 °F 60.8 °F 94% 30.23 in 5.0 mi SSW 6.9 mph - N/A   Mist
10:15 AM 62.6 °F 60.8 °F 94% 30.23 in 6.0 mi South 9.2 mph - N/A   Mist
10:35 AM 64.4 °F 60.8 °F 88% 30.22 in 6.0 mi South 6.9 mph - N/A   Mist
10:55 AM 64.4 °F 60.8 °F 88% 30.22 in 7.0 mi SSW 9.2 mph - N/A   Unknown
11:15 AM 64.4 °F 60.8 °F 88% 30.22 in 6.0 mi SSW 10.4 mph - N/A   Haze
11:35 AM 64.4 °F 60.8 °F 88% 30.22 in 6.0 mi SSW 5.8 mph - N/A   Haze
11:55 AM 66.2 °F 60.8 °F 83% 30.22 in 6.0 mi SSW 8.1 mph - N/A   Haze
12:15 PM 66.2 °F 60.8 °F 83% 30.20 in 7.0 mi SW 6.9 mph - N/A   Unknown
12:35 PM 66.2 °F 60.8 °F 83% 30.18 in 6.0 mi South 4.6 mph - N/A   Haze
12:55 PM 69.8 °F 60.8 °F 73% 30.17 in 8.0 mi South 6.9 mph - N/A   Unknown
1:35 PM 71.6 °F 60.8 °F 69% 30.15 in 7.0 mi South 5.8 mph - N/A   Unknown
1:55 PM 71.6 °F 60.8 °F 69% 30.15 in 8.0 mi South 4.6 mph - N/A   Unknown
2:15 PM 71.6 °F 60.8 °F 69% 30.14 in 8.0 mi SSW 8.1 mph - N/A   Unknown
2:35 PM 71.6 °F 60.8 °F 69% 30.12 in 7.0 mi South 5.8 mph - N/A   Unknown
2:55 PM 73.4 °F 60.8 °F 65% 30.12 in 7.0 mi South 6.9 mph - N/A   Unknown
3:15 PM 73.4 °F 60.8 °F 65% 30.11 in 7.0 mi South 4.6 mph - N/A   Unknown
3:35 PM 73.4 °F 60.8 °F 65% 30.11 in 7.0 mi SE 6.9 mph 16.1 mph N/A   Unknown
3:55 PM 71.6 °F 60.8 °F 69% 30.11 in 7.0 mi South 4.6 mph - N/A   Unknown
4:15 PM 71.6 °F 60.8 °F 69% 30.11 in 7.0 mi SSE 8.1 mph - N/A   Unknown
4:35 PM 71.6 °F 60.8 °F 69% 30.10 in 7.0 mi SE 6.9 mph - N/A   Unknown
4:55 PM 69.8 °F 60.8 °F 73% 30.11 in 6.0 mi SSE 6.9 mph - N/A   Haze
5:15 PM 69.8 °F 60.8 °F 73% 30.11 in 7.0 mi South 8.1 mph - N/A   Unknown
5:35 PM 69.8 °F 60.8 °F 73% - 7.0 mi North - - N/A   Unknown
5:55 PM 66.2 °F 60.8 °F 83% 30.11 in 9.0 mi SE 4.6 mph - N/A   Unknown
6:15 PM 66.2 °F 59.0 °F 78% 30.11 in 10.0 mi SE 6.9 mph - N/A   Unknown
6:35 PM 66.2 °F 59.0 °F 78% 30.11 in 10.0 mi SE 3.5 mph - N/A   Unknown
6:55 PM 64.4 °F 59.0 °F 83% 30.11 in 10.0 mi Calm Calm - N/A   Unknown
7:15 PM 62.6 °F 59.0 °F 88% 30.11 in 10.0 mi Calm Calm - N/A   Unknown
7:35 PM 62.6 °F 59.0 °F 88% 30.10 in 9.0 mi SE 4.6 mph - N/A   Unknown
7:55 PM 62.6 °F 59.0 °F 88% 30.10 in 10.0 mi ESE 4.6 mph - N/A   Unknown
8:15 PM 62.6 °F 59.0 °F 88% 30.10 in 10.0 mi ESE 4.6 mph - N/A   Unknown
8:35 PM 62.6 °F 59.0 °F 88% 30.09 in 9.0 mi SE 3.5 mph - N/A   Unknown
8:55 PM 62.6 °F 60.8 °F 94% 30.09 in 10.0 mi SE 5.8 mph - N/A   Unknown
9:15 PM 62.6 °F 60.8 °F 94% 30.09 in 10.0 mi SE 5.8 mph - N/A   Unknown
9:35 PM 62.6 °F 60.8 °F 94% 30.08 in 10.0 mi SE 8.1 mph - N/A   Unknown
9:55 PM 62.6 °F 60.8 °F 94% 30.08 in 10.0 mi SE 5.8 mph - N/A   Unknown
10:15 PM 62.6 °F 60.8 °F 94% 30.08 in 9.0 mi SE 6.9 mph - N/A   Unknown
10:35 PM 62.6 °F 60.8 °F 94% 30.09 in 9.0 mi SE 5.8 mph - N/A   Unknown
10:55 PM 60.8 °F 60.8 °F 100% 30.08 in 8.0 mi ESE 4.6 mph - N/A   Unknown
11:15 PM 60.8 °F 59.0 °F 94% 30.10 in 7.0 mi North 5.8 mph - N/A   Unknown
11:35 PM 57.2 °F 57.2 °F 100% 30.09 in 5.0 mi Calm Calm - N/A   Mist
11:55 PM 57.2 °F 57.2 °F 100% 30.09 in 1.8 mi Calm Calm - N/A   Mist